#timestamp,LO_Frequency,Hit,StdDev 
1561734015.7,286047003.3,N
1561734035.6,286047003.8,Y
1561734055.4,286046998.8,P
1561734075.2,286046999.2,N
1561734095.1,286046999.2,N
1561734096.0,286046999.2,N
1561734115.8,286046997.4,N
1561734135.6,286046997.8,N
1561734155.4,286046997.0,N
1561734175.3,286046997.0,N
1561734195.1,286046996.8,N
1561734215.8,286046995.5,N
1561734235.7,286046996.1,N
1561734255.5,286046994.5,Y
1561734275.3,286046994.6,P
1561734295.2,286046993.3,P
1561734315.9,286046993.7,P
1561734335.7,286046993.5,Y
1561734355.6,286046998.1,P
1561734375.4,286047000.7,N
1561734395.2,286047001.0,N
1561734415.1,286047002.7,N
1561734416.0,286047002.7,N
1561734435.8,286047001.3,N
1561734455.6,286047003.6,N
1561734475.5,286047003.4,N
1561734495.3,286047004.2,N
1561734515.1,286047006.0,N
1561734535.8,286047003.0,N
1561734555.7,286047003.2,N
1561734575.5,286047004.2,N
1561734595.3,286047001.5,N
1561734615.2,286047003.7,N
1561734635.9,286047003.5,N
1561734655.7,286047003.6,N
1561734675.6,286047003.9,N
1561734695.4,286047001.9,N
1561734715.2,286047002.1,N
1561734735.0,286047002.0,N
1561734736.0,286047002.0,N
1561734755.8,286047002.8,N
1561734775.6,286046999.8,N
1561734795.4,286047000.2,N
1561734815.3,286046998.3,N
1561734835.1,286047000.2,N
1561734855.8,286047001.0,N
1561734875.7,286047000.6,N
1561734895.5,286047002.4,N
1561734915.3,286047002.5,N
1561734935.2,286047002.7,N
1561734955.9,286047002.4,N
1561734975.7,286047000.4,N
1561734995.6,286047000.4,N
1561735015.4,286047000.7,N
1561735035.2,286047000.5,N
1561735055.0,286047002.4,N
1561735055.9,286047002.4,N
1561735075.8,286047001.9,N
1561735095.6,286047002.3,N
1561735115.4,286047002.2,N
1561735135.3,286047000.1,N
1561735155.1,286047002.7,N
1561735175.8,286047004.1,Y
1561735195.7,286047002.2,P
1561735215.5,286047001.5,P
1561735235.3,286047003.9,P
1561735255.2,286047003.9,Y
1561735275.9,286046998.4,P
1561735295.7,286046999.6,N
1561735315.6,286046999.2,N
1561735335.4,286046996.9,N
1561735355.2,286046997.2,N
1561735375.1,286046997.3,N
1561735376.0,286046997.3,N
1561735395.8,286046997.0,N
1561735415.6,286046999.6,N
1561735435.5,286046998.4,N
1561735455.3,286047000.4,N
1561735475.1,286047002.6,N
1561735495.8,286047003.2,N
1561735515.7,286047005.5,N
1561735535.5,286047005.1,N
1561735555.3,286047005.3,N
1561735575.2,286047005.3,N
1561735595.9,286047003.1,N
1561735615.7,286047001.6,N
1561735635.6,286047002.3,N
1561735655.4,286047000.8,N
1561735675.2,286046998.6,N
1561735695.0,286046999.3,N
1561735696.0,286046999.3,N
1561735715.8,286046996.8,N
1561735735.6,286046999.4,N
1561735755.4,286046999.5,N
1561735775.3,286046999.3,N
1561735795.1,286047001.2,N
1561735815.8,286047001.0,N
1561735835.7,286047001.1,N
1561735855.5,286047002.2,N
1561735875.3,286047001.3,N
1561735895.2,286047002.0,N
1561735915.9,286047001.3,N
1561735935.7,286047003.5,N
1561735955.5,286047005.8,N
1561735975.4,286047005.7,N
1561735995.2,286047005.5,N
1561736015.0,286047005.7,N
1561736015.9,286047005.7,N
1561736035.8,286047002.9,N
1561736055.6,286047005.8,N
1561736075.4,286047005.7,N
1561736095.3,286047004.8,N
1561736115.1,286047007.6,N
1561736116.0,286047007.6,N
1561736135.8,286047008.8,Y
1561736155.7,286047005.7,P
1561736175.5,286047005.4,P
1561736195.3,286047005.9,P
1561736215.2,286047005.8,Y
1561736235.0,286047000.4,P
1561736235.9,286047000.4,N
1561736255.7,286047001.2,N
1561736275.6,286046998.8,N
1561736295.4,286047000.8,N
1561736315.2,286046999.3,N
1561736335.1,286046998.1,N
1561736336.0,286046998.1,N
1561736355.8,286047000.6,N
1561736375.6,286047000.8,N
1561736395.5,286046998.8,N
1561736415.3,286046997.2,N
1561736435.1,286046997.1,N
1561736455.8,286046997.5,N
1561736475.7,286046995.4,N
1561736495.5,286046996.3,N
1561736515.3,286046991.7,Y
1561736535.2,286046994.0,P
1561736555.0,286046994.2,N
1561736555.9,286046994.2,N
1561736575.7,286046994.6,N
1561736595.6,286046993.7,Y
1561736615.4,286046998.9,P
1561736635.2,286046996.7,N
1561736655.1,286046997.0,N
1561736656.0,286046997.0,N
1561736675.8,286046996.8,N
1561736695.6,286046999.5,N
1561736715.5,286046996.6,N
1561736735.3,286046999.5,N
1561736755.1,286047001.2,N
1561736775.9,286046998.1,N
1561736795.7,286046999.0,N
1561736815.5,286046998.7,N
1561736835.3,286046998.3,N
1561736855.2,286046998.3,N
1561736875.0,286046999.6,N
1561736875.9,286046999.6,N
1561736895.7,286046998.5,N
1561736915.6,286047001.2,N
1561736935.4,286047000.3,N
1561736955.2,286047000.2,N
1561736975.1,286047000.6,N
1561736976.0,286047000.6,N
1561736995.8,286047000.4,N
1561737015.6,286047001.2,N
1561737035.5,286047001.0,N
1561737055.3,286046998.8,N
1561737075.1,286046998.5,N
1561737095.8,286046998.9,N
1561737115.7,286046999.3,N
1561737135.5,286046997.1,N
1561737155.3,286046994.9,Y
1561737175.2,286046997.4,P
1561737195.0,286046997.8,N
1561737195.9,286046997.8,P
1561737215.8,286046995.0,Y
1561737235.6,286047001.0,P
1561737255.4,286047001.1,N
1561737275.2,286047000.9,N
1561737295.1,286047000.3,N
1561737296.0,286047000.3,N
1561737315.8,286047000.4,N
1561737335.6,286047000.2,N
1561737355.5,286047002.8,Y
1561737375.3,286047002.2,P
1561737395.1,286047001.5,N
1561737415.9,286047004.2,P
1561737435.7,286047003.5,N
1561737455.5,286047003.2,N
1561737475.4,286047005.9,Y
1561737495.2,286047001.7,P
1561737515.0,286047002.4,P
1561737515.9,286047002.4,P
1561737535.8,286047002.0,Y
1561737555.6,286047001.1,P
1561737575.4,286046999.2,N
1561737595.3,286046997.6,N
